Hourly Data Report for August 23, 2016

TORONTO CITY
ONTARIO

43°40'00.000" N
79°24'00.000" W
112.50 m
6158355
71508
XTO

Download Data

Hourly Data (August 2016)
Hourly Data Report for August 23, 2016
TIME
LST
Temp Definition
°C
Dew Point Definition
°C
Rel Hum Definition
%
Precip. Amount Definition
mm

Wind Dir Definition
10's deg

Wind Spd Definition
km/h
Visibility Definition
km
Stn Press Definition
kPa
Hmdx Definition


Wind Chill Definition


Weather Definition


00:00 17.0 9.6 62 0.0 LegendMM LegendMM   100.94     LegendNANA
01:00 17.1 10.4 65 0.0 LegendMM LegendMM   100.97     LegendNANA
02:00 16.6 10.7 68 0.0 LegendMM LegendMM   100.99     LegendNANA
03:00 16.2 11.0 72 0.0 LegendMM LegendMM   101.01     LegendNANA
04:00 16.1 11.8 75 0.0 LegendMM LegendMM   101.03     LegendNANA
05:00 15.9 12.2 78 0.0 LegendMM LegendMM   101.06     LegendNANA
06:00 16.2 11.9 76 0.0 LegendMM LegendMM   101.09     LegendNANA
07:00 18.8 12.3 66 0.0 LegendMM LegendMM   101.09     LegendNANA
08:00 21.1 13.0 60 0.0 LegendMM LegendMM   101.10     LegendNANA
09:00 21.1 13.8 63 0.0 LegendMM LegendMM   101.09     LegendNANA
10:00 23.5 14.5 57 0.0 LegendMM LegendMM   101.07 27   LegendNANA
11:00 24.8 14.1 51 0.0 LegendMM LegendMM   101.05 28   LegendNANA
12:00 25.8 12.8 45 0.0 LegendMM LegendMM   101.05 28   LegendNANA
13:00 26.4 14.1 47 0.0 LegendMM LegendMM   101.01 30   LegendNANA
14:00 27.4 14.8 46 0.0 LegendMM LegendMM   100.96 31   LegendNANA
15:00 27.5 15.7 49 0.0 LegendMM LegendMM   100.91 32   LegendNANA
16:00 26.8 14.6 47 0.0 LegendMM LegendMM   100.90 31   LegendNANA
17:00 26.3 14.8 49 0.0 LegendMM LegendMM   100.88 30   LegendNANA
18:00 25.8 14.5 50 0.0 LegendMM LegendMM   100.87 29   LegendNANA
19:00 25.2 14.3 51 0.0 LegendMM LegendMM   100.90 29   LegendNANA
20:00 24.9 13.1 48 0.0 LegendMM LegendMM   100.94 28   LegendNANA
21:00 24.1 12.0 47 0.0 LegendMM LegendMM   100.96 26   LegendNANA
22:00 22.9 12.0 50 0.0 LegendMM LegendMM   100.95 25   LegendNANA
23:00 21.6 12.5 56 0.0 LegendMM LegendMM   100.92     LegendNANA

Notes on Data Quality.

Legend

  • E = Estimated
  • M = Missing
  • NA = Not Available*
  • [empty] = Indicates an unobserved value
Date modified: